Content
SEND FEEDBACK

Daily
Averages
Monthly
Summary
United Kingdom

BELFAST, NORTHERN IRELAND


Home > Europe > United Kingdom > Northern Ireland
Elevation: 16 feet     Latitude: 54 36N     Longitude: 005 53W

WEATHER
 
SELECT A DAY
Number of Records: 195,027;   Date Range: 7/1/96 - 12/18/14
 
SHARE

PRINT THIS DATA

[ ← Previous Day ]
WEATHER ALMANAC - FEBRUARY 8, 2013
[ Next Day → ]
[ °C ]   °F
Weather ElementAverageHighLow
Temperature42.9 °F44.6 °F (7:50 pm)41 °F (6:50 am)
Dewpoint39.3 °F42.8 °F (5:20 pm)35.6 °F (6:50 am)
Humidity87.1 %100 % (5:20 pm)76 % (8:20 am)
Barometer30.21 in30.24 in (8:50 am)30.15 in (8:50 pm)
Wind Speed5.4 mph10.4 mph (9:20 pm)
Weather ElementAverage
Visibility5.3 mi
Wind DirectionSSE (174.2 °)

Weather ElementTotal
Precipitation---
Heating Degree Days22.2 (Base 65)
Averaged from 31 records on February 8, 2013
WEATHER CONDITIONS BREAKOUT
WIND DIRECTION BREAKOUT
WEATHER BY HOUR - FEBRUARY 8, 2013
[ °C ]   °F
Local TimeTemperatureDewpointHumidityBarometerVisibilityWind DirectionWind SpeedGust SpeedPrecipitationEventsConditions
6:50 AM41.0 °F35.6 °F81 %30.21 in6.2 miWNW (290°)9.2 mphRainLight Rain
7:20 AM41.0 °F35.6 °F81 %30.21 in6.2 miVariable3.5 mphRainLight Rain
7:50 AM41.0 °F35.6 °F81 %30.21 in6.2 miSSE (150°)4.6 mphPartly Cloudy
8:20 AM42.8 °F35.6 °F76 %30.21 in6.2 miSouth (180°)4.6 mphPartly Cloudy
8:50 AM42.8 °F35.6 °F76 %30.24 in6.2 miVariable3.5 mphPartly Cloudy
9:20 AM42.8 °F35.6 °F76 %30.24 in6.2 miWNW (290°)4.6 mphPartly Cloudy
9:50 AM42.8 °F35.6 °F76 %30.24 in6.2 miWNW (300°)4.6 mphPartly Cloudy
10:20 AM42.8 °F35.6 °F76 %30.24 in6.2 miVariable3.5 mphMostly Cloudy
10:50 AM42.8 °F37.4 °F81 %30.24 in6.2 miWest (280°)5.8 mphMostly Cloudy
11:20 AM42.8 °F37.4 °F81 %30.24 in6.2 miWest (280°)9.2 mphRainLight Rain
11:50 AM42.8 °F37.4 °F81 %30.24 in6.2 miWest (280°)6.9 mphRainLight Rain
12:20 PM42.8 °F39.2 °F87 %30.24 in6.2 miWSW (240°)4.6 mphRainLight Rain
12:50 PM42.8 °F39.2 °F87 %30.24 in6.2 miVariable2.3 mphRainLight Rain
1:20 PM42.8 °F39.2 °F87 %30.24 in6.2 miWNW (300°)4.6 mphRainLight Rain
1:50 PM42.8 °F39.2 °F87 %30.21 in6.2 miVariable3.5 mphRainLight Rain
2:20 PM42.8 °F39.2 °F87 %30.21 in6.2 miWSW (240°)4.6 mphRainLight Rain
2:50 PM42.8 °F39.2 °F87 %30.21 in6.2 miWSW (240°)5.8 mphRainLight Rain
3:20 PM42.8 °F39.2 °F87 %30.21 in5.6 miVariable2.3 mphRainLight Rain
3:50 PM42.8 °F41.0 °F93 %30.21 in4.3 miSouth (190°)5.8 mphRainLight Rain
4:20 PM42.8 °F41.0 °F93 %30.21 in4.3 miSouth (190°)4.6 mphRainLight Rain
4:50 PM42.8 °F41.0 °F93 %30.18 in2.5 miSouth (180°)4.6 mphRainLight Rain
5:20 PM42.8 °F42.8 °F100 %30.18 in1.9 miVariable2.3 mphMostly Cloudy
5:50 PM42.8 °F42.8 °F100 %30.18 in1.9 miSouth (190°)5.8 mphMostly Cloudy
6:20 PM42.8 °F42.8 °F100 %30.18 in4.3 miSSE (160°)8.1 mphLight Drizzle
6:50 PM42.8 °F42.8 °F100 %30.18 in4.3 miSouth (190°)6.9 mphLight Drizzle
7:20 PM42.8 °F42.8 °F100 %30.18 in4.3 miVariable3.5 mphLight Drizzle
7:50 PM44.6 °F42.8 °F93 %30.18 in4.3 miWest (260°)4.6 mphMostly Cloudy
8:20 PM44.6 °F42.8 °F93 %30.18 in4.3 miSW (230°)5.8 mphMostly Cloudy
8:50 PM44.6 °F41.0 °F87 %30.15 in4.3 miWSW (250°)9.2 mphMostly Cloudy
9:20 PM44.6 °F41.0 °F87 %30.15 in6.2 miWSW (250°)10.4 mphMostly Cloudy
9:50 PM44.6 °F41.0 °F87 %30.15 in6.2 miWSW (240°)6.9 mphMostly Cloudy
Hourly data recorded from EGAC, located miles away from Belfast, Northern Ireland







STORIES FROM OUR PARTNERS